Temperature
7 9 10 10 9 10 9 9 10 10 10 9 10 10 12 12 11 11 11 10 10 10 10 9 9 9 9 9 9 9 9 9 9 9 9 9 9 10 10 10 10 10 10 11
9 9 9 9 8 8 8 8 9 10 9 9 9 10 12 11 11 10 10 10 9 9 9 9 9 9 8 8 9 9 9 9 9 9 9 9 9 9 9 10 10 10 10 10
9 10 8 8 8 8 8 9 9 9 9 9 8 11 12 12 11 10 9 9 9 9 9 9 8 8 8 8 8 8 9 9 9 9 9 9 9 9 9 9 9 10 10 10
8 8 7 7 8 8 9 9 8 7 7 9 8 10 13 12 11 11 10 10 9 8 8 8 8 8 8 8 8 8 8 8 9 8 8 8 8 8 9 9 9 9 9 9
9 7 7 8 8 8 8 7 7 7 7 7 8 8 12 11 11 11 11 10 9 8 8 7 7 7 7 8 8 8 8 8 8 8 8 8 8 8 8 8 9 9 9 9
8 7 7 8 7 7 7 7 7 7 7 7 9 9 12 12 11 11 11 10 9 8 8 7 7 7 7 7 7 7 8 8 8 8 8 8 8 8 8 8 8 8 8 9
8 7 7 6 7 7 7 8 8 9 8 9 9 8 11 11 11 10 10 10 9 8 8 7 7 7 7 7 7 7 7 8 8 8 8 8 8 8 8 8 8 8 8 8
8 9 7 6 7 7 7 7 8 9 10 10 9 9 11 11 10 9 9 8 8 8 7 7 7 6 6 6 6 7 7 7 7 7 7 7 8 7 7 7 8 8 8 8
8 8 6 6 6 7 7 7 7 7 6 7 9 10 10 10 9 9 9 8 8 8 7 7 6 6 6 6 6 6 7 7 7 7 7 7 7 7 7 7 7 7 8 8
6 6 6 5 5 5 7 7 6 6 6 8 10 10 10 10 9 10 9 9 8 8 7 6 6 6 6 6 6 6 6 6 6 7 7 7 7 7 7 7 7 7 7 7
5 5 6 5 5 7 5 5 6 6 6 7 9 10 10 9 9 9 9 8 7 7 6 6 6 6 6 6 6 6 6 6 6 6 6 6 6 6 6 7 7 7 7 7
4 5 6 6 6 5 6 6 6 5 5 6 7 9 10 9 9 8 8 7 6 6 6 5 5 5 5 5 5 5 5 5 6 6 6 6 6 6 6 6 6 6 6 7
3 4 5 6 5 4 4 4 4 5 5 6 6 8 9 8 8 8 7 7 6 6 5 5 5 5 5 5 5 5 5 5 5 5 5 5 5 5 6 6 6 6 6 6
4 3 5 7 7 5 4 4 4 4 4 5 6 7 8 8 8 8 7 6 6 5 5 4 4 4 4 4 4 4 4 4 5 5 5 5 5 5 5 5 5 6 6 6
3 4 4 5 5 5 4 4 4 3 4 5 6 6 7 8 8 7 7 6 5 5 4 4 4 4 4 4 4 4 4 4 4 4 4 4 4 4 4 5 5 5 5 6
2 3 3 4 4 4 4 5 5 4 4 4 5 5 7 7 7 6 6 5 5 4 4 4 3 3 3 3 3 3 3 3 3 3 4 4 4 4 4 4 4 5 5 5
2 2 3 4 4 4 4 5 5 5 5 5 5 6 7 7 6 6 5 5 4 4 3 3 3 3 3 3 3 3 3 3 3 3 3 3 3 3 3 3 4 4 5 5
1 2 2 3 3 3 7 6 6 5 6 6 5 6 6 5 5 4 4 4 4 3 3 3 3 3 2 3 2 2 2 2 2 3 3 3 3 3 3 3 3 4 4 4
2 2 2 3 3 4 6 5 4 4 5 5 5 5 5 4 4 4 4 3 3 3 3 3 2 2 2 2 2 2 2 2 2 2 2 2 2 2 2 3 3 3 4 4
1 1 2 2 3 4 6 5 4 4 4 5 5 4 4 4 4 5 4 3 3 3 2 2 2 2 2 2 2 2 2 1 1 1 1 2 2 2 2 2 3 3 3 4
1 1 2 2 3 4 6 4 3 4 5 5 4 4 3 3 4 3 3 2 2 2 2 2 2 2 2 1 1 1 1 1 1 1 1 1 1 1 2 2 2 3 3 3
2 2 2 2 2 3 4 3 4 5 4 4 3 3 2 2 2 2 2 2 1 1 1 1 1 1 1 1 1 1 1 1 1 1 1 1 1 1 1 2 2 2 2 3
2 3 3 3 4 5 3 3 3 3 3 3 3 2 2 1 1 1 1 1 1 1 1 1 1 1 1 1 1 0 0 0 0 0 1 1 1 1 1 1 2 2 2 2
2 1 1 2 3 4 3 3 2 2 2 2 2 1 1 1 1 1 1 1 0 0 1 1 0 0 1 1 1 0 0 0 0 0 0 0 1 1 1 1 1 1 2 2
2 1 1 2 3 3 2 2 2 2 2 1 1 1 0 0 0 -0 -0 -0 -0 -0 0 -0 -0 0 0 0 0 0 -0 0 0 0 0 0 0 1 1 1 1 1 1 1
2 1 2 2 3 3 3 2 2 1 1 0 0 -0 -0 -1 -1 -1 -1 -1 -1 -1 -1 -1 -0 -0 -0 0 -0 -0 -0 -0 -0 -0 -0 0 0 0 1 1 1 1 1 1
Wind_Speed
2 5 7 7 7 6 7 10 14 13 9 11 17 22 23 17 13 12 11 10 10 10 10 9 9 8 8 9 9 9 9 8 6 5 5 5 7 7 6 7 10 10 10 11
4 8 7 5 6 8 9 12 14 12 7 10 17 22 19 12 9 10 10 10 10 10 10 10 9 9 8 9 9 8 9 8 8 6 5 6 7 6 6 7 9 10 10 11
9 2 3 6 8 9 11 13 12 12 14 10 12 13 8 6 7 8 9 10 9 9 10 10 9 9 9 9 9 8 8 8 8 7 5 6 5 5 6 7 8 9 10 11
8 6 6 8 9 8 9 7 10 12 11 7 5 8 7 5 7 7 7 7 7 8 9 9 9 9 9 9 8 8 8 8 8 7 7 8 7 8 9 8 8 9 10 11
6 5 6 9 8 8 6 5 9 10 9 9 7 7 9 4 7 5 5 5 6 7 8 9 9 9 9 9 8 8 8 8 8 7 7 8 8 9 7 8 9 9 10 11
8 4 5 5 4 6 4 5 6 5 5 7 7 8 8 5 6 5 5 5 6 7 8 8 8 8 9 9 8 8 8 8 8 8 8 9 9 9 9 9 9 8 8 9
6 6 5 4 3 4 4 3 3 4 5 6 3 7 10 6 5 7 7 7 7 7 8 9 9 9 9 9 8 8 8 8 8 8 8 10 10 10 11 10 10 9 9 9
5 6 7 6 6 5 6 4 4 5 6 6 5 9 7 5 6 7 8 8 8 8 8 9 10 10 9 9 9 9 8 8 8 8 8 9 9 9 9 10 9 9 9 10
5 4 2 4 4 5 4 5 3 4 6 8 8 8 8 6 7 7 8 8 8 9 9 9 10 10 9 9 9 9 8 9 8 8 8 9 9 9 10 10 9 8 9 9
4 5 3 2 4 5 5 3 4 4 5 8 9 9 6 5 6 6 7 8 9 10 10 10 9 9 9 9 9 8 8 8 8 8 8 8 9 9 9 9 9 10 10 10
5 5 3 4 8 9 7 6 6 5 5 6 8 7 3 6 8 9 10 10 10 10 11 10 9 10 10 9 8 8 7 7 7 7 8 9 8 8 9 8 8 9 9 10
6 5 6 7 4 4 8 9 9 6 7 7 8 10 5 7 8 9 11 11 11 11 10 10 10 10 9 8 8 8 7 7 7 7 7 7 7 7 7 8 8 8 9 10
5 5 4 4 4 4 6 7 9 8 6 9 10 11 4 6 10 12 13 13 12 11 10 10 10 9 9 8 8 7 7 7 7 7 7 6 6 6 7 7 8 8 8 9
5 6 9 10 6 3 6 8 10 10 9 11 15 20 18 17 17 17 15 14 13 11 10 10 10 9 8 8 7 7 7 6 6 6 7 6 7 6 7 7 7 7 8 8
5 7 9 14 13 11 13 14 13 16 16 15 19 21 22 21 19 17 15 13 12 11 11 10 9 8 8 8 7 7 7 6 6 6 6 6 6 6 6 6 6 7 7 7
5 6 7 12 13 13 16 18 19 19 19 21 23 24 21 19 15 14 13 11 11 11 11 10 9 9 9 9 7 7 7 6 6 7 6 7 6 6 6 6 6 6 6 6
6 6 6 10 9 9 13 14 16 14 14 15 18 18 17 15 14 13 12 11 11 11 11 10 9 9 9 8 6 6 6 6 7 6 7 6 6 6 6 6 6 6 6 4
8 8 6 7 6 11 8 3 8 12 14 14 15 16 15 15 14 12 10 10 10 10 10 9 9 9 8 7 6 6 5 6 6 6 6 6 6 6 6 6 6 6 5 3
13 9 6 5 9 13 10 6 5 7 10 10 12 13 13 10 9 9 8 8 9 10 9 9 8 8 8 7 6 5 6 5 5 5 6 6 5 6 6 6 7 6 4 3
9 10 9 7 8 10 7 2 2 4 8 5 7 8 8 8 8 9 9 10 10 9 8 8 8 8 8 7 6 5 6 6 6 6 6 6 5 6 6 7 7 5 3 3
5 8 12 13 12 10 6 2 4 6 5 1 3 6 7 8 9 11 12 11 11 9 8 8 7 7 7 7 5 5 6 7 7 6 6 6 5 6 6 6 6 4 3 2
8 7 9 8 10 10 3 5 6 6 5 5 7 8 9 11 13 13 12 12 11 10 9 8 7 7 7 6 5 6 7 7 6 6 6 6 6 5 5 5 4 3 2 2
9 9 6 8 9 6 5 8 8 8 9 10 10 11 11 12 13 13 12 12 11 10 10 9 8 8 8 6 5 6 7 6 5 5 6 6 6 5 4 4 4 3 2 1
7 7 7 9 12 12 12 12 12 12 12 12 11 11 11 12 14 14 13 12 11 10 9 9 8 8 8 7 6 7 6 5 5 5 6 5 5 5 4 3 3 2 1 1
10 7 9 14 14 13 14 13 13 11 11 11 11 11 12 12 13 13 12 12 10 10 9 8 8 8 9 8 7 6 5 5 5 5 5 5 4 4 4 3 3 2 2 2
12 12 12 14 13 12 13 11 11 11 11 11 12 12 11 11 12 12 12 11 10 10 9 8 8 8 8 7 7 6 5 5 4 5 5 4 4 3 2 2 2 2 2 3
Wind_Direction
200 222 227 225 222 250 267 268 276 280 291 292 278 281 287 286 277 276 279 278 279 278 279 280 278 277 278 277 268 257 254 258 253 247 238 246 243 236 232 237 233 228 225 217
221 236 239 232 225 237 251 267 275 286 288 296 288 286 283 272 266 271 277 279 282 287 288 285 284 282 275 274 272 268 258 257 251 249 243 240 240 238 235 242 236 229 227 220
238 249 194 225 236 245 253 255 272 287 307 283 293 285 252 241 261 271 270 274 280 289 295 292 288 285 281 274 269 266 263 262 255 249 245 242 240 238 241 241 238 231 228 226
248 243 231 238 244 240 263 254 267 283 295 287 297 293 270 256 268 268 267 271 282 293 299 296 292 287 282 278 272 268 263 262 259 250 243 239 239 240 244 243 239 232 231 228
241 219 226 240 245 231 258 284 273 273 269 276 247 255 273 262 259 252 259 270 284 299 303 301 295 288 282 280 278 272 267 265 259 250 246 242 243 244 244 243 241 233 231 228
255 242 240 244 248 227 251 277 268 239 242 256 235 236 273 247 249 252 263 277 284 301 305 303 302 292 287 287 283 276 270 270 264 251 247 244 246 246 246 243 240 235 232 227
252 227 212 210 221 195 222 274 281 255 237 252 209 243 257 262 259 261 274 285 288 301 304 307 307 299 294 291 286 280 276 271 269 259 252 248 246 244 241 244 239 238 235 230
264 246 196 202 220 214 209 223 247 275 277 285 251 248 260 283 279 276 275 280 282 293 300 303 303 299 295 294 288 282 277 272 267 262 260 258 251 249 242 244 242 241 240 235
235 254 150 203 220 213 200 216 255 269 282 277 260 263 278 276 279 273 274 281 286 300 303 304 306 304 299 293 289 282 277 272 268 264 263 260 255 254 250 250 246 245 244 240
218 254 223 188 200 223 242 197 188 219 264 271 271 268 273 288 287 298 296 299 301 310 312 309 309 305 303 299 293 289 281 275 272 270 267 263 258 260 259 256 252 247 244 241
207 230 226 200 210 211 195 200 214 228 245 264 279 278 300 289 302 305 311 315 315 316 317 316 309 306 304 305 308 307 297 284 280 272 271 268 261 261 260 256 255 250 245 240
196 221 246 237 225 254 225 221 208 228 240 238 266 278 300 297 302 307 311 315 314 314 316 315 316 314 311 310 308 308 305 298 293 287 281 277 273 267 264 260 260 255 247 243
173 203 248 236 204 198 222 223 225 237 256 249 255 270 299 307 306 306 307 312 314 317 318 317 317 315 313 313 310 307 306 301 301 299 290 286 284 279 274 272 267 261 253 249
190 214 233 253 277 226 241 241 227 222 240 253 253 270 284 295 303 307 311 313 315 317 316 317 316 314 316 316 314 311 309 306 307 306 298 290 287 290 288 287 280 269 260 252
200 237 243 260 270 266 261 259 242 231 239 252 267 274 282 291 301 306 307 310 313 315 316 317 315 315 317 318 314 315 313 312 309 305 303 298 291 294 297 297 292 285 272 261
209 245 257 266 264 262 267 262 254 249 249 253 264 272 279 291 298 299 304 309 310 313 315 316 315 315 315 314 311 313 310 311 310 302 303 305 298 299 302 301 299 296 288 267
212 223 245 267 276 277 266 257 250 244 242 249 258 269 288 295 298 300 307 308 305 309 313 311 310 312 311 308 304 305 304 307 307 307 306 307 310 307 305 306 306 307 297 280
215 222 237 263 268 252 265 269 254 253 256 250 259 274 286 293 300 299 300 299 303 308 307 306 309 311 312 308 302 301 299 297 301 303 304 309 312 310 309 308 307 307 298 278
217 217 231 239 253 266 272 252 230 242 264 260 261 275 290 301 301 294 307 311 308 307 303 302 304 307 311 309 302 300 295 297 301 303 303 304 306 308 311 308 306 307 295 281
211 217 230 235 249 258 272 250 224 245 267 269 263 279 294 304 299 307 326 323 316 311 305 305 307 306 305 305 301 297 301 303 299 297 298 301 303 303 303 307 310 307 288 283
193 211 226 238 249 261 272 176 168 233 277 307 279 291 294 291 293 302 308 312 313 309 306 304 301 298 299 302 298 296 299 296 296 298 300 304 306 301 299 306 309 304 298 289
206 211 218 229 240 252 182 165 217 266 303 286 285 287 290 292 296 298 302 307 308 307 303 300 297 298 301 299 291 289 290 293 297 298 299 303 308 309 309 308 308 304 299 277
223 225 231 225 243 281 228 241 259 275 279 283 283 286 288 289 293 297 300 303 303 301 299 299 295 295 298 295 287 285 289 293 295 297 299 303 309 310 307 306 309 309 307 301
237 235 243 255 261 270 269 268 272 272 273 278 280 286 287 287 291 294 296 296 297 296 295 295 292 290 295 297 290 284 288 289 288 292 297 301 302 306 310 311 304 297 297 314
252 230 247 260 271 279 272 271 274 278 279 280 282 284 284 286 289 291 291 291 292 292 292 290 287 287 290 295 292 289 286 285 288 291 295 298 297 300 311 311 302 285 273 275
243 240 246 260 267 269 276 279 279 279 279 281 284 285 285 285 285 288 287 288 288 287 289 289 287 286 288 291 291 292 288 281 283 289 292 293 292 295 304 308 324 345 313 320
Height
1489 1487 1481 1480 1482 1481 1481 1479 1474 1468 1470 1470 1460 1452 1445 1444 1445 1444 1442 1441 1439 1438 1437 1436 1434 1433 1431 1431 1430 1430 1430 1430 1430 1431 1431 1432 1433 1434 1436 1437 1439 1440 1442 1444
1485 1481 1479 1481 1483 1483 1482 1479 1471 1466 1468 1468 1457 1447 1439 1438 1439 1439 1438 1436 1435 1433 1432 1430 1429 1428 1427 1426 1425 1424 1425 1426 1426 1426 1427 1428 1428 1429 1430 1431 1433 1435 1436 1438
1478 1477 1480 1481 1480 1479 1476 1474 1468 1468 1466 1462 1459 1437 1431 1432 1435 1435 1434 1433 1431 1429 1427 1426 1424 1423 1423 1422 1421 1420 1421 1421 1421 1422 1422 1423 1423 1423 1425 1425 1427 1429 1431 1433
1477 1478 1479 1478 1475 1475 1469 1469 1471 1470 1469 1456 1459 1441 1422 1427 1429 1429 1429 1428 1427 1426 1424 1423 1421 1419 1418 1417 1416 1416 1416 1416 1416 1417 1417 1418 1416 1417 1418 1420 1421 1423 1425 1427
1471 1475 1476 1474 1471 1473 1469 1471 1470 1469 1467 1463 1454 1453 1422 1424 1423 1423 1424 1425 1424 1423 1421 1420 1418 1416 1415 1413 1412 1411 1411 1411 1411 1411 1412 1412 1412 1413 1414 1415 1415 1417 1419 1420
1473 1475 1474 1471 1471 1472 1472 1470 1467 1466 1464 1457 1444 1445 1420 1416 1418 1419 1421 1421 1421 1420 1419 1417 1415 1413 1411 1409 1408 1407 1406 1406 1406 1406 1407 1407 1407 1407 1407 1408 1409 1410 1412 1413
1467 1469 1471 1472 1469 1470 1470 1466 1457 1452 1451 1438 1442 1441 1421 1414 1418 1418 1419 1418 1418 1417 1416 1414 1412 1409 1407 1405 1403 1403 1402 1401 1401 1401 1402 1402 1402 1402 1402 1402 1403 1404 1405 1406
1463 1456 1464 1467 1465 1464 1465 1464 1459 1451 1438 1429 1436 1430 1414 1415 1417 1418 1417 1417 1416 1415 1413 1411 1409 1406 1404 1401 1400 1398 1397 1397 1397 1397 1397 1397 1397 1397 1397 1397 1397 1398 1399 1400
1461 1457 1464 1466 1466 1465 1464 1461 1461 1461 1457 1450 1426 1419 1414 1413 1414 1414 1414 1413 1412 1411 1410 1408 1406 1403 1401 1398 1396 1394 1393 1393 1393 1392 1392 1392 1392 1392 1391 1391 1392 1392 1393 1394
1464 1462 1461 1465 1467 1466 1463 1462 1464 1462 1454 1435 1418 1414 1410 1410 1410 1411 1411 1410 1409 1408 1406 1405 1403 1400 1398 1395 1393 1391 1389 1389 1388 1387 1387 1386 1386 1386 1386 1385 1386 1386 1387 1387
1465 1464 1459 1462 1459 1455 1463 1463 1460 1455 1452 1440 1422 1410 1409 1411 1410 1410 1409 1409 1407 1406 1404 1401 1399 1397 1394 1392 1389 1387 1386 1385 1384 1383 1382 1382 1382 1381 1381 1380 1380 1380 1381 1381
1463 1462 1455 1452 1455 1457 1456 1454 1455 1454 1450 1446 1432 1416 1409 1412 1411 1411 1409 1408 1406 1404 1401 1398 1396 1393 1391 1388 1386 1384 1383 1381 1380 1379 1378 1378 1377 1376 1376 1375 1375 1375 1375 1375
1462 1462 1453 1445 1454 1459 1456 1454 1453 1452 1449 1439 1432 1415 1408 1411 1410 1409 1407 1405 1402 1400 1397 1394 1392 1390 1387 1385 1383 1382 1380 1378 1377 1375 1374 1373 1373 1372 1371 1370 1370 1369 1369 1369
1458 1457 1449 1438 1434 1445 1450 1449 1450 1451 1444 1432 1424 1412 1407 1407 1406 1405 1404 1402 1399 1397 1395 1391 1389 1386 1384 1382 1380 1379 1378 1376 1374 1372 1371 1369 1369 1367 1366 1365 1364 1364 1363 1363
1456 1451 1448 1443 1442 1443 1442 1441 1442 1443 1435 1430 1417 1413 1407 1406 1405 1403 1401 1399 1397 1395 1392 1389 1386 1384 1382 1380 1378 1376 1375 1373 1372 1370 1368 1366 1365 1364 1362 1360 1359 1358 1357 1357
1453 1450 1446 1441 1438 1438 1436 1431 1430 1430 1428 1425 1420 1412 1406 1405 1404 1401 1399 1397 1395 1392 1390 1387 1384 1382 1379 1377 1376 1374 1372 1371 1369 1367 1364 1363 1362 1359 1357 1355 1354 1352 1352 1351
1448 1448 1444 1432 1432 1434 1426 1417 1418 1417 1416 1416 1411 1405 1402 1401 1400 1398 1397 1395 1393 1390 1388 1385 1382 1380 1378 1376 1374 1371 1370 1368 1366 1363 1362 1360 1358 1355 1353 1351 1349 1347 1346 1347
1444 1444 1441 1434 1434 1430 1408 1411 1411 1410 1408 1409 1407 1403 1402 1401 1398 1396 1396 1393 1390 1388 1385 1383 1380 1378 1375 1373 1371 1369 1368 1366 1363 1361 1359 1357 1354 1352 1350 1348 1345 1344 1343 1343
1437 1439 1436 1431 1425 1412 1406 1408 1411 1409 1405 1404 1403 1401 1400 1399 1396 1392 1392 1390 1388 1386 1383 1381 1378 1375 1372 1370 1369 1367 1365 1363 1360 1358 1356 1354 1351 1349 1346 1344 1342 1340 1340 1339
1433 1434 1433 1427 1422 1411 1400 1405 1407 1408 1402 1401 1401 1400 1399 1398 1393 1389 1389 1388 1386 1383 1381 1378 1375 1372 1370 1368 1366 1364 1361 1359 1358 1356 1353 1351 1349 1346 1343 1341 1339 1338 1337 1337
1430 1429 1426 1421 1416 1405 1401 1405 1407 1406 1398 1399 1400 1399 1398 1396 1394 1392 1388 1386 1383 1381 1378 1375 1373 1370 1368 1366 1363 1361 1359 1357 1355 1353 1350 1348 1346 1344 1341 1339 1338 1337 1336 1335
1417 1417 1418 1415 1413 1405 1401 1404 1403 1398 1398 1398 1398 1397 1396 1394 1391 1388 1386 1383 1380 1377 1375 1373 1370 1367 1365 1363 1361 1358 1356 1354 1352 1350 1347 1345 1343 1341 1339 1337 1336 1335 1334 1334
1411 1408 1405 1406 1401 1397 1398 1398 1397 1396 1396 1395 1394 1393 1392 1389 1387 1384 1382 1379 1376 1374 1371 1369 1366 1363 1361 1360 1358 1355 1354 1351 1349 1346 1344 1342 1340 1339 1337 1335 1334 1333 1333 1332
1405 1407 1406 1402 1396 1395 1395 1394 1394 1393 1392 1391 1391 1389 1388 1386 1383 1380 1378 1375 1372 1370 1367 1365 1363 1360 1358 1356 1354 1352 1351 1349 1346 1343 1341 1340 1338 1336 1335 1333 1333 1332 1332 1331
1399 1402 1400 1396 1393 1392 1390 1390 1389 1388 1388 1387 1386 1385 1383 1381 1378 1376 1373 1370 1368 1365 1363 1361 1359 1356 1354 1353 1351 1349 1348 1345 1343 1341 1339 1337 1336 1334 1333 1332 1332 1332 1332 1332
1393 1394 1393 1387 1387 1387 1385 1385 1385 1384 1383 1382 1381 1379 1377 1376 1373 1371 1368 1366 1363 1361 1359 1356 1354 1353 1351 1349 1347 1346 1344 1343 1340 1338 1337 1335 1333 1332 1331 1330 1330 1330 1330 1330